DW9005 Weather Reports


time (UTC)temp
C
wind
direction
speed
KPH
gust
KPH
rain 1hr
cm
rain 24hr
cm
rain mn
cm
humidity
%
barometer
mb
20260510044534 16 155 0.0 0.0 0.00 0.00 0.00 92 1014.6
20260510043015 17 155 0.0 0.0 0.00 0.00 0.00 92 1014.6
20260510041513 17 155 0.0 0.0 0.00 0.00 0.00 92 1014.7
20260510040057 17 155 0.0 0.0 0.00 0.00 0.00 92 1014.6
20260510034554 17 155 0.0 0.0 0.00 0.00 0.00 91 1014.7
20260510033036 17 155 0.0 0.0 0.00 0.00 0.00 91 1014.6
20260510031536 18 155 0.0 0.0 0.00 0.00 0.00 91 1014.6
20260510030019 18 155 0.0 0.0 0.00 0.00 0.00 91 1014.7
20260510024515 18 155 0.0 0.0 0.00 0.00 0.00 90 1014.5
20260510023114 18 157 0.0 0.0 0.00 0.00 0.00 90 1014.4
20260510021601 18 157 0.0 0.0 0.00 0.00 0.00 90 1014.2
20260510020053 19 157 0.0 0.0 0.00 0.00 0.00 90 1013.9
20260510014541 19 157 0.0 0.0 0.00 0.00 0.00 89 1013.7
20260510013040 19 157 0.0 0.0 0.00 0.00 0.00 89 1013.4
20260510011546 19 186 0.0 0.0 0.00 0.00 0.00 89 1013.2
20260510010039 20 167 0.0 0.0 0.00 0.00 0.00 88 1012.9
20260510004539 20 171 0.0 0.0 0.00 0.00 0.00 88 1012.7
20260510003041 20 346 0.0 0.0 0.00 0.00 0.00 87 1012.7
20260510001538 20 172 0.0 0.0 0.00 0.00 0.00 86 1012.7
20260510000041 20 151 0.0 0.0 0.00 0.00 0.00 85 1012.4
20260509234530 21 128 0.0 0.0 0.00 0.00 0.00 85 1012.3
20260509233020 21 171 0.0 0.0 0.00 0.00 0.00 84 1012.1
20260509231510 21 165 0.0 0.0 0.00 0.00 0.00 83 1012.0
20260509230002 21 123 0.0 0.0 0.00 0.00 0.00 82 1011.7
20260509224555 22 171 0.0 0.0 0.00 0.00 0.00 81 1011.8
20260509223052 22 157 0.0 0.0 0.00 0.00 0.00 81 1011.7
20260509221550 22 175 0.0 0.0 0.00 0.00 0.00 79 1011.5
20260509220049 22 190 0.0 0.0 0.00 0.00 0.00 78 1011.4
20260509214549 22 197 0.0 0.0 0.00 0.00 0.00 77 1011.4
20260509213104 23 161 0.0 0.0 0.00 0.00 0.00 76 1011.4
20260509211552 23 136 0.0 0.0 0.00 0.00 0.00 75 1011.2
20260509210101 23 164 0.0 0.0 0.00 0.00 0.00 73 1011.0
20260509204529 23 260 0.0 0.0 0.00 0.00 0.00 70 1011.1
20260509203038 23 184 0.0 0.0 0.00 0.00 0.00 73 1011.3
20260509201511 23 162 0.0 0.0 0.00 0.00 0.00 73 1011.2
20260509200011 23 138 0.0 0.0 0.00 0.00 0.00 71 1011.3
20260509194552 23 142 0.0 0.0 0.00 0.00 0.00 73 1011.5
20260509193052 23 68 0.0 0.0 0.00 0.00 0.00 72 1011.5
20260509191539 24 19 0.0 0.0 0.00 0.00 0.00 72 1011.9
20260509190031 23 249 0.0 0.0 0.00 0.00 0.00 75 1012.1
20260509184511 23 200 0.0 0.0 0.00 0.00 0.00 77 1012.1
20260509183009 22 104 0.0 0.0 0.00 0.00 0.00 75 1012.2
20260509181558 22 137 0.0 0.0 0.00 0.00 0.00 77 1012.5
20260509180049 22 210 0.0 0.0 0.00 0.00 0.00 80 1012.6
20260509174529 21 142 0.0 0.0 0.00 0.00 0.00 80 1012.8
20260509173028 21 128 0.0 0.0 0.00 0.00 0.00 79 1012.8
20260509171511 21 242 0.0 0.0 0.00 0.00 0.00 81 1012.7
20260509170013 21 110 0.0 0.0 0.00 0.00 0.00 80 1012.7
20260509164547 21 261 0.0 0.0 0.00 0.00 0.00 81 1012.9
20260509163043 20 41 0.0 0.0 0.00 0.00 0.00 85 1013.3
20260509161531 20 250 0.0 0.0 0.00 0.00 0.00 86 1013.1
20260509160020 19 173 0.0 0.0 0.00 0.00 0.00 86 1013.3
20260509154502 19 167 0.0 0.0 0.00 0.00 0.00 87 1013.5
20260509153105 18 244 0.0 0.0 0.00 0.00 0.00 89 1013.6
20260509151543 18 147 0.0 0.0 0.00 0.00 0.00 90 1013.4
20260509150040 17 319 0.0 0.0 0.00 0.00 0.00 90 1013.4
20260509144519 17 286 0.0 0.0 0.00 0.00 0.00 91 1013.5
20260509143018 17 24 0.0 0.0 0.00 0.00 0.00 91 1013.4
20260509141600 17 268 0.0 0.0 0.00 0.00 0.00 91 1013.6
20260509140105 17 169 0.0 0.0 0.00 0.00 0.00 91 1013.6
20260509134540 17 277 0.0 0.0 0.00 0.00 0.00 92 1013.4
20260509133036 17 334 0.0 0.0 0.00 0.00 0.00 92 1013.0
20260509131517 17 315 0.0 0.0 0.00 0.00 0.00 92 1012.7
20260509130117 16 244 0.0 0.0 0.00 0.00 0.00 92 1012.5
20260509124610 16 248 0.0 0.0 0.00 0.00 0.00 92 1012.6
20260509123057 16 250 0.0 0.0 0.00 0.00 0.00 93 1012.5
20260509121541 16 207 0.0 0.0 0.00 0.00 0.00 92 1012.3
20260509120039 -17 0.0 0.0 0.00 0.00 0.00 1012.4
20260509114514 -17 0.0 0.0 0.00 0.00 0.00 1012.6
20260509113009 -17 0.0 0.0 0.00 0.00 0.00 1012.4
20260509111548 -17 0.0 0.0 0.00 0.00 0.00 1012.5
20260509110047 -17 0.0 0.0 0.00 0.00 0.00 1012.4
20260509104523 -17 0.0 0.0 0.00 0.00 0.00 1011.9
20260509103018 -17 0.0 0.0 0.00 0.00 0.00 1011.8
20260509101602 -17 0.0 0.0 0.00 0.00 0.00 1011.9
20260509100054 -17 0.0 0.0 0.00 0.00 0.00 1011.3
20260509094539 -17 0.0 0.0 0.00 0.00 0.00 1011.1
20260509093035 16 113 0.0 0.0 0.00 0.00 0.00 93 1011.7
20260509091535 16 149 0.0 0.0 0.00 0.00 0.00 93 1010.8
20260509090029 15 199 0.0 0.0 0.00 0.00 0.00 93 1011.1
20260509084529 14 106 0.0 0.0 0.00 0.00 0.00 92 1011.9
20260509083025 14 254 0.0 0.0 0.00 0.00 0.00 92 1012.6
20260509081525 14 253 0.0 0.0 0.00 0.00 0.00 92 1012.7
20260509080022 14 251 0.0 0.0 0.00 0.00 0.00 93 1012.2
20260509074504 13 316 0.0 0.0 0.00 0.00 0.00 93 1012.3
20260509073011 13 316 0.0 0.0 0.00 0.00 0.00 93 1012.3
20260509071545 13 316 0.0 0.0 0.00 0.00 0.00 93 1012.3
20260509070048 13 209 0.0 0.0 0.00 0.00 0.00 93 1012.0
20260509064526 12 211 0.0 0.0 0.00 0.00 0.00 92 1012.4
20260509063028 12 211 0.0 0.0 0.00 0.00 0.00 92 1012.0
20260509061506 12 211 0.0 0.0 0.00 0.00 0.00 92 1011.8
20260509060005 12 211 0.0 0.0 0.00 0.00 0.00 92 1012.2
20260509054553 12 211 0.0 0.0 0.00 0.00 0.00 92 1012.7
20260509053044 13 211 0.0 0.0 0.00 0.00 0.00 92 1013.0
20260509051524 13 210 0.0 0.0 0.00 0.00 0.00 92 1012.9
20260509050022 13 210 0.0 0.0 0.00 0.00 0.00 92 1013.2